Weather in Pochayevo

Russia / Belgorod Oblast     50°38′43″N   35°32′49″E
temp.,
°C
wind,
m/s
gust,
m/s
humid.,
%
clouds,
%
prec.,
mm/h
press.,
hPa
HPBL,
m
15 august, mon
mon1500:00+21ene71661100 0.3 1014386
03:00+19ene6156687 0.4 1014327
06:00+18ene51460100 0.0 1013258
09:00+25e6123783 0.0 1013568
12:00+29ene71031100 0.0 1013978
15:00+32e61027100 0.0 10111665
18:00+30ene71330100 0.0 1010684
21:00+28ene91733100 0.0 1010579
16 august, tue
tue1600:00+27e91832100 0.0 1010557
03:00+26e8173252 0.0 1010701
06:00+24ese71639100 0.1 1011607
09:00+25ese71334100 0.1 1012745
12:00+26e81331100 0.0 1012770
15:00+28ene81229100 0.0 10111006
18:00+26ene101636100 0.0 1011655
21:00+26ene8163165 0.0 1010841
17 august, wed
wed1700:00+23ene494495 0.3 1011209
03:00+20ene495874 0.3 1010169
06:00+19ese236286 0.0 101066
09:00+23e236094 0.8 1010228
12:00+28se234190 0.4 10101060
15:00+32s242746 0.4 10092458
18:00+31wsw11360 0.0 1008190
21:00+23ese11558 0.1 100912
18 august, thu
thu1800:00+20e412613 0.0 1010282
03:00+18ene410705 0.0 1009205
06:00+17ene487648 0.0 1010174
09:00+23e455067 0.0 1010406
12:00+29ene33369 0.0 10091015
15:00+31ne33315 0.0 10091876
18:00+30ne34355 0.0 1009917
21:00+24ne344651 0.0 100953
19 august, fri
fri1900:00+21ne4757100 0.0 1009123
03:00+19ne3770100 0.0 1009130
06:00+18ene357697 0.0 100998
09:00+24ene565719 0.0 1010490
12:00+29e5540100 0.0 10091235
15:00+32e443643 0.0 10091940
18:00+30ne554222 0.0 1009785
21:00+21se5977100 0.4 1010188